Notices

What's New in latest Release from April 7th, 2021:

- Updated Glossary, including Speed of Maximum Gust, and Total Hourly Precipitation

- Updated national and regional climate services offices contacts and prices information

- Addition of station inventory lists for 1981-2010, 1971-2000, and 1961-1990 Normals.

If you haven't already, please take our survey and provide feedback about our website: https://eccc.sondage-survey.ca/f/LanguageSelection.aspx?s=442ca660-fcf1-47c0-95a9-59707d6fd709

Hourly Data Report for April 01, 2004

TORONTO CITY
ONTARIO

43°40'00.000" N
79°24'00.000" W
112.50 m
6158355
71508
XTO

Download Data

Hourly Data (April 2004)
Hourly Data Report for April 1, 2004
TIME
LST
Temp Definition
°C
Dew Point Definition
°C
Rel Hum Definition
%
Precip. Amount Definition
mm

Wind Dir Definition
10's deg

Wind Spd Definition
km/h
Visibility Definition
km
Stn Press Definition
kPa
Hmdx Definition


Wind Chill Definition


Weather Definition


00:00 5.7 3.6 86   LegendMM LegendMM LegendMM 99.98     LegendNANA
01:00 5.1 2.8 85   LegendMM LegendMM LegendMM 99.92     LegendNANA
02:00 4.9 2.6 85   LegendMM LegendMM LegendMM 99.89     LegendNANA
03:00 4.4 2.6 88   LegendMM LegendMM LegendMM 99.86     LegendNANA
04:00 4.3 2.2 86   LegendMM LegendMM LegendMM 99.83     LegendNANA
05:00 3.8 2.6 92   LegendMM LegendMM LegendMM 99.83     LegendNANA
06:00 3.7 2.5 92   LegendMM LegendMM LegendMM 99.84     LegendNANA
07:00 3.4 2.1 91   LegendMM LegendMM LegendMM 99.86     LegendNANA
08:00 3.1 2.1 93   LegendMM LegendMM LegendMM 99.86     LegendNANA
09:00 3.4 2.2 92   LegendMM LegendMM LegendMM 99.76     LegendNANA
10:00 4.3 2.2 86   LegendMM LegendMM LegendMM 99.80     LegendNANA
11:00 4.5 1.9 83   LegendMM LegendMM LegendMM 99.76     LegendNANA
12:00 4.9 2.6 85   LegendMM LegendMM LegendMM 99.64     LegendNANA
13:00 6.0 3.0 81   LegendMM LegendMM LegendMM 99.60     LegendNANA
14:00 6.0 3.3 83   LegendMM LegendMM LegendMM 99.55     LegendNANA
15:00 6.3 3.6 83   LegendMM LegendMM LegendMM 99.52     LegendNANA
16:00 5.9 4.1 88   LegendMM LegendMM LegendMM 99.49     LegendNANA
17:00 6.0 4.8 92   LegendMM LegendMM LegendMM 99.53     LegendNANA
18:00 6.3 5.3 93   LegendMM LegendMM LegendMM 99.53     LegendNANA
19:00 6.6 5.4 92   LegendMM LegendMM LegendMM 99.55     LegendNANA
20:00 6.5 5.8 95   LegendMM LegendMM LegendMM 99.55     LegendNANA
21:00 6.6 5.9 95   LegendMM LegendMM LegendMM 99.55     LegendNANA
22:00 6.9 6.5 97   LegendMM LegendMM LegendMM 99.53     LegendNANA
23:00 7.1 6.7 97   LegendMM LegendMM LegendMM 99.52     LegendNANA

Notes on Data Quality.

Legend

  • E = Estimated
  • M = Missing
  • NA = Not Available*
  • [empty] = Indicates an unobserved value
Date modified: